[[{"header":{"parameterUnit":"m.s-1","parameterCategory":1,"la1":30.2991,"la2":30.254,"lo1":-89.0895,"lo2":-89.0444,"dy":0.0017,"dx":0.0017,"nx":28,"ny":28,"refTime":"2023-04-29T21:00:00:Z","depth":0,"parameterNumber":2,"parameterNumberName":"U-component_of_WINDS"},"data":[0,0,0,0,0,0,0,0,0,0,0,0,0,0,0,0,0,0,0,0,0,0,0,0,0,0,0,0,0,0,0,0,0,0,0,0,0,0,0,0,0,0,0,0,0,0,0,0,0,0,0,0,0,0,0,0,0,0,-2.0996,-2.0997,0,-2.1037,-2.1037,-2.1037,-2.1027,-2.1026,-2.1025,-2.1024,-2.1066,-2.1067,-2.1069,0,0,0,0,0,0,0,0,0,0,0,0,0,-2.0912,-2.0913,-2.0996,-2.0997,-2.0997,-2.1036,-2.1037,-2.1038,-2.1027,-2.1026,-2.1025,-2.1024,-2.1065,-2.1067,-2.1069,0,0,0,0,0,0,0,0,0,0,0,0,0,-2.095,-2.0914,-2.0996,-2.0997,-2.0997,-2.1036,-2.1037,-2.1038,-2.1027,-2.1026,-2.1024,-2.1023,-2.1064,-2.1067,-2.107,-2.1111,0,0,-2.1078,-2.1079,0,0,0,0,0,0,0,0,-2.0948,-2.0953,-2.0996,-2.0997,-2.0997,-2.1025,-2.1022,-2.1062,-2.1027,-2.1016,-2.1024,-2.1023,-2.1053,-2.1057,-2.1067,-2.1113,-2.1115,-2.1078,-2.108,-2.1081,-2.1082,0,0,0,0,0,0,0,-2.0945,-2.0951,-2.1012,-2.0997,-2.0997,-2.0995,-2.0999,-2.103,-2.1041,-2.1016,-2.1016,-2.1021,-2.1053,-2.1064,-2.1068,-2.1115,-2.1078,-2.1081,-2.1083,-2.1084,-2.1199,-2.12,0,0,0,0,0,0,-2.0942,-2.0949,-2.1011,-2.1013,-2.0969,-2.0998,-2.1002,-2.1018,-2.104,-2.1043,-2.1022,-2.102,-2.106,-2.1065,-2.1069,-2.1119,-2.1081,-2.1084,-2.1085,-2.1198,-2.1199,-2.1201,0,0,0,0,0,0,-2.094,-2.0947,-2.1009,-2.0981,-2.0989,-2.1001,-2.1018,-2.1019,-2.103,-2.1044,-2.1046,-2.1031,-2.1059,-2.1065,-2.1101,-2.1121,-2.1085,-2.1088,-2.1196,-2.1198,-2.12,-2.122,0,0,0,0,0,0,-2.0938,-2.0947,-2.0962,-2.0981,-2.099,-2.104,-2.1019,-2.1021,-2.1035,-2.1033,-2.1053,-2.1056,-2.1059,-2.1097,-2.1104,-2.1124,-2.109,-2.1194,-2.1197,-2.1199,-2.1217,-2.1222,-2.1226,0,0,0,0,0,-2.0935,-2.0966,-2.0963,-2.097,-2.101,-2.1041,-2.1046,-2.1049,-2.1036,-2.1052,-2.1062,-2.1055,-2.1118,-2.1101,-2.1108,-2.1129,-2.1193,-2.1196,-2.1199,-2.1215,-2.1221,-2.1226,0,0,0,0,0,0,-2.0948,-2.0968,-2.0965,-2.1004,-2.1021,-2.1039,-2.1058,-2.1055,-2.1076,-2.1073,-2.1077,-2.1082,-2.1118,-2.1128,-2.1108,-2.1172,-2.1154,-2.1158,-2.1163,-2.1169,-2.1174,-2.117,-2.1092,0,0,0,0,0,-2.0955,-2.0979,-2.0996,-2.1028,-2.1037,-2.1047,-2.106,-2.1061,-2.1079,-2.1086,-2.1098,-2.1116,-2.114,-2.1155,-2.1178,-2.122,-2.1224,-2.1238,-2.1243,-2.1247,-2.125,-2.1273,-2.128,-2.1211,-2.1211,-2.1211,0,0,-2.097,-2.0985,-2.0999,-2.1031,-2.1044,-2.1069,-2.1052,-2.1079,-2.1097,-2.109,-2.1124,-2.1134,-2.1155,-2.1194,-2.1211,-2.1203,-2.1271,-2.1251,-2.1253,-2.1255,-2.1277,-2.1284,-2.129,-2.1213,-2.1213,-2.1212,0,0,-2.1011,-2.1024,-2.1052,-2.1067,-2.1087,-2.1094,-2.1101,-2.1121,-2.1127,-2.1162,-2.1157,-2.118,-2.1221,-2.1236,-2.1249,-2.1298,-2.1292,-2.1305,-2.1328,-2.1351,-2.1356,-2.1361,-2.1378,-2.1384,-2.1309,-2.1309,-2.1309,0,-2.1027,-2.1063,-2.1067,-2.1095,-2.1109,-2.1105,-2.1134,-2.1148,-2.1175,-2.1185,-2.1176,-2.1228,-2.1242,-2.1284,-2.1296,-2.1307,-2.1315,-2.1301,-2.1355,-2.136,-2.1365,-2.1381,-2.1387,-2.131,-2.131,-2.131,-2.131,0,-2.1082,-2.1108,-2.1129,-2.1155,-2.1172,-2.12,-2.1209,-2.1226,-2.1227,-2.1235,-2.1271,-2.1288,-2.1314,-2.1325,-2.1326,-2.1368,-2.1362,-2.1354,-2.1336,-2.1372,-2.1388,-2.1394,-2.1312,-2.1312,-2.1312,-2.1311,0,0,-2.1129,-2.1159,-2.1167,-2.1179,-2.1203,-2.1223,-2.1252,-2.1278,-2.1293,-2.1313,-2.1337,-2.1373,-2.1366,-2.1381,-2.1384,-2.1404,-2.1442,-2.1393,-2.1394,-2.1401,-2.149,-2.1495,-2.1502,-2.144,-2.1441,-2.1442,-2.1488,0,-2.117,-2.122,-2.1226,-2.127,-2.1295,-2.1293,-2.1318,-2.1336,-2.1345,-2.1367,-2.1378,-2.1403,-2.1392,-2.1401,-2.1421,-2.1433,-2.1459,-2.143,-2.1462,-2.1463,-2.1455,-2.151,-2.1515,-2.1557,-2.1494,-2.1495,-2.1496,0,-2.1224,-2.1246,-2.1293,-2.1315,-2.1325,-2.1348,-2.1373,-2.1394,-2.1415,-2.1421,-2.1439,-2.144,-2.147,-2.1453,-2.1495,-2.1475,-2.1489,-2.1497,-2.1499,-2.1501,-2.148,-2.1512,-2.1571,-2.1577,-2.1505,-2.1505,-2.1504,0,-2.1252,-2.1294,-2.1327,-2.1338,-2.1365,-2.1381,-2.1393,-2.1413,-2.1429,-2.1451,-2.1462,-2.1488,-2.1502,-2.1523,-2.1531,-2.1517,-2.1573,-2.1556,-2.1579,-2.1578,-2.1588,-2.1587,-2.1649,-2.16,-2.16,-2.16,-2.16,0,-2.1297,-2.1325,-2.134,-2.1361,-2.1394,-2.1401,-2.1433,-2.1445,-2.1463,-2.1486,-2.1488,-2.1509,-2.152,-2.1544,-2.1551,-2.1586,-2.1592,-2.1598,-2.1599,-2.1596,-2.1596,-2.1604,-2.1601,-2.1602,-2.1601,-2.1601,-2.1601,0,-2.1332,-2.1344,-2.138,-2.1403,-2.141,-2.1433,-2.1453,-2.1473,-2.1483,-2.1513,-2.1521,-2.1536,-2.1565,-2.1576,-2.1611,-2.1616,-2.1655,-2.1655,-2.1648,-2.1648,-2.1669,-2.1666,-2.1737,-2.1747,-2.1693,-2.1693,-2.1694,0,-2.1359,-2.1381,-2.1407,-2.1423,-2.1435,-2.146,-2.1477,-2.1487,-2.1504,-2.1531,-2.1548,-2.1577,-2.16,-2.1646,-2.1661,-2.1688,-2.1687,-2.1711,-2.1691,-2.1689,-2.1687,-2.1684,-2.1687,-2.1713,-2.1714,-2.1714,-2.1715,0,-2.1404,-2.141,-2.1433,-2.146,-2.1479,-2.15,-2.1521,-2.1534,-2.1547,-2.1567,-2.1596,-2.1614,-2.165,-2.1679,-2.1707,-2.172,-2.172,-2.1721,-2.1727,-2.1724,-2.1719,-2.1721,-2.1656,-2.1719,-2.1718,-2.1718,-2.1718,-2.1718,-2.1436,-2.1455,-2.1477,-2.1504,-2.1521,-2.1541,-2.1561,-2.1574,-2.1599,-2.1629,-2.1634,-2.1665,-2.1688,-2.1726,-2.1741,-2.1766,-2.176,-2.1769,-2.1771,-2.1773,-2.1774,-2.1717,-2.1771,-2.1771,-2.1771,-2.1771,-2.1771,0,-2.148,-2.1495,-2.152,-2.1549,-2.157,-2.1569,-2.1593,-2.161,-2.1638,-2.1659,-2.1682,-2.1717,-2.1745,-2.1764,-2.1792,-2.1809,-2.181,-2.1816,-2.1814,-2.1817,-2.1778,-2.1769,-2.1816,-2.1816,-2.1816,-2.1816,-2.1816,-2.1816,-2.1506,-2.1539,-2.1548,-2.159,-2.1605,-2.1635,-2.1649,-2.1668,-2.1685,-2.1723,-2.1747,-2.1759,-2.1779,-2.181,-2.1836,-2.1841,-2.1851,-2.1858,-2.1862,-2.1825,-2.182,-2.1816,-2.1807,-2.1861,-2.1861,-2.1899,-2.19,-2.19]},{"header":{"parameterUnit":"m.s-1","parameterCategory":1,"la1":30.2991,"la2":30.254,"lo1":-89.0895,"lo2":-89.0444,"dy":0.0017,"dx":0.0017,"nx":28,"ny":28,"refTime":"2023-04-29T21:00:00:Z","depth":0,"parameterNumber":3,"parameterNumberName":"V-component_of_WINDS"},"data":[0,0,0,0,0,0,0,0,0,0,0,0,0,0,0,0,0,0,0,0,0,0,0,0,0,0,0,0,0,0,0,0,0,0,0,0,0,0,0,0,0,0,0,0,0,0,0,0,0,0,0,0,0,0,0,0,0,0,2.7869,2.7868,0,2.7814,2.7813,2.7813,2.7743,2.7742,2.7741,2.774,2.7681,2.768,2.768,0,0,0,0,0,0,0,0,0,0,0,0,0,2.7912,2.7911,2.7869,2.7868,2.7868,2.7814,2.7813,2.7813,2.7743,2.7742,2.774,2.7739,2.7681,2.768,2.768,0,0,0,0,0,0,0,0,0,0,0,0,0,2.7879,2.7911,2.7869,2.7827,2.7822,2.7814,2.7813,2.7812,2.7743,2.7742,2.774,2.7738,2.7681,2.768,2.7679,2.7708,0,0,2.7677,2.7677,0,0,0,0,0,0,0,0,2.788,2.7877,2.7833,2.7829,2.7825,2.7784,2.7807,2.7777,2.7744,2.7773,2.774,2.7738,2.7716,2.7712,2.7706,2.7705,2.7703,2.7677,2.7676,2.7676,2.7676,0,0,0,0,0,0,0,2.7883,2.7879,2.7847,2.7833,2.7827,2.7809,2.7803,2.7801,2.7755,2.7771,2.7765,2.776,2.7713,2.7707,2.7704,2.7702,2.7677,2.7676,2.7676,2.7675,2.7722,2.7724,0,0,0,0,0,0,2.7892,2.7881,2.7849,2.7845,2.7849,2.781,2.7803,2.7798,2.7754,2.7746,2.7761,2.7757,2.7709,2.7705,2.7701,2.7732,2.7676,2.7675,2.7675,2.772,2.7722,2.7724,0,0,0,0,0,0,2.7893,2.789,2.7851,2.7862,2.7856,2.7811,2.7807,2.7798,2.7791,2.7748,2.7739,2.7763,2.7707,2.7702,2.7707,2.7729,2.7675,2.7674,2.7718,2.7721,2.7723,2.7793,0,0,0,0,0,0,2.7895,2.789,2.7901,2.7863,2.7855,2.7859,2.7808,2.7798,2.7791,2.7784,2.7747,2.7739,2.7706,2.7709,2.7706,2.7727,2.7674,2.7716,2.7719,2.7723,2.7789,2.7798,2.7805,0,0,0,0,0,2.7896,2.7922,2.7902,2.7899,2.7868,2.786,2.7856,2.7817,2.7793,2.7803,2.7775,2.774,2.7727,2.771,2.7706,2.7727,2.7715,2.7719,2.7722,2.7785,2.7796,2.7805,0,0,0,0,0,0,2.7963,2.7917,2.7894,2.7908,2.7889,2.7848,2.786,2.783,2.7817,2.7811,2.7763,2.7756,2.7766,2.7747,2.7728,2.7752,2.7716,2.7719,2.7764,2.7774,2.7783,2.7787,2.7673,0,0,0,0,0,2.798,2.7978,2.7937,2.7954,2.7945,2.7905,2.79,2.7872,2.7849,2.7841,2.7813,2.7792,2.7782,2.7777,2.7767,2.7786,2.7776,2.7798,2.7807,2.7814,2.7817,2.7825,2.7835,2.7737,2.7737,2.7737,0,0,2.8014,2.7988,2.799,2.7967,2.7948,2.7947,2.7898,2.7898,2.7896,2.784,2.7843,2.7822,2.7795,2.7807,2.7811,2.7792,2.7842,2.7819,2.7825,2.7824,2.783,2.784,2.7848,2.774,2.7739,2.7739,0,0,2.8076,2.8056,2.8068,2.8051,2.8024,2.7997,2.8,2.7964,2.7949,2.7951,2.7909,2.7906,2.7891,2.7874,2.7863,2.7919,2.7887,2.7917,2.7961,2.7969,2.7977,2.7984,2.8003,2.8011,2.792,2.7921,2.7921,0,2.8121,2.8118,2.8078,2.8081,2.8072,2.8022,2.8034,2.8019,2.799,2.7984,2.7963,2.7944,2.7923,2.793,2.7944,2.7937,2.7938,2.792,2.798,2.7986,2.7991,2.8009,2.8017,2.7924,2.7924,2.7924,2.7923,0,2.8175,2.8173,2.8186,2.816,2.8153,2.816,2.8121,2.8118,2.8091,2.8066,2.8069,2.8042,2.8025,2.8024,2.7998,2.8028,2.8017,2.7989,2.795,2.8005,2.8021,2.8028,2.793,2.7929,2.7927,2.7926,0,0,2.8275,2.8229,2.8234,2.8222,2.8189,2.8187,2.8192,2.8176,2.8175,2.8156,2.8159,2.8149,2.8122,2.811,2.8081,2.8089,2.8135,2.806,2.8058,2.8074,2.8166,2.8188,2.8196,2.8114,2.8115,2.8116,2.8168,0,2.833,2.8337,2.8302,2.8317,2.8315,2.8269,2.8273,2.8253,2.823,2.8224,2.8198,2.8192,2.8158,2.815,2.8156,2.8129,2.8153,2.8124,2.8115,2.8115,2.8123,2.8205,2.8227,2.8278,2.8175,2.8176,2.8176,0,2.8394,2.8381,2.8397,2.8364,2.8362,2.8367,2.835,2.8345,2.8322,2.8304,2.8292,2.8259,2.8261,2.8226,2.8228,2.8209,2.8203,2.8189,2.819,2.8187,2.8149,2.8203,2.8293,2.83,2.8186,2.8185,2.8184,0,2.8466,2.8452,2.846,2.8451,2.8413,2.8417,2.8401,2.8376,2.8369,2.8354,2.8349,2.8335,2.8326,2.8315,2.8279,2.8257,2.8285,2.8247,2.827,2.8271,2.8277,2.8277,2.8367,2.8275,2.8275,2.8275,2.8275,0,2.853,2.8542,2.8492,2.8496,2.8508,2.8467,2.8479,2.8458,2.8437,2.8436,2.8395,2.8395,2.8348,2.8343,2.8314,2.832,2.8317,2.8302,2.8294,2.8305,2.8307,2.83,2.8296,2.8277,2.8276,2.8276,2.8275,0,2.8612,2.8579,2.8584,2.8548,2.8539,2.8549,2.8518,2.8521,2.8496,2.8495,2.8493,2.8453,2.8445,2.8408,2.8391,2.8372,2.8387,2.8372,2.8395,2.839,2.8415,2.8413,2.8502,2.8512,2.8415,2.8416,2.8417,0,2.8655,2.8663,2.8628,2.8625,2.8612,2.8607,2.8601,2.8561,2.8555,2.853,2.8535,2.8524,2.8513,2.8502,2.8471,2.8457,2.8441,2.8474,2.8439,2.845,2.8441,2.8441,2.8441,2.8481,2.8482,2.8483,2.8484,0,2.8734,2.8718,2.871,2.8697,2.869,2.8677,2.8662,2.8662,2.8617,2.8613,2.8605,2.8596,2.8579,2.8568,2.855,2.8533,2.8501,2.8495,2.85,2.8511,2.8524,2.8517,2.8415,2.8493,2.8492,2.8492,2.8491,2.8491,2.8797,2.8802,2.8779,2.8771,2.8756,2.8743,2.8744,2.872,2.8712,2.8696,2.8673,2.8668,2.8644,2.8616,2.8602,2.8596,2.8578,2.8585,2.8587,2.8589,2.8594,2.8526,2.8593,2.8593,2.8592,2.8592,2.8592,0,2.8874,2.8857,2.8851,2.8832,2.8826,2.8798,2.878,2.8777,2.8773,2.8754,2.8744,2.8735,2.8724,2.8693,2.8679,2.8681,2.8666,2.8679,2.8678,2.8674,2.8611,2.8609,2.8691,2.8691,2.8691,2.8691,2.8691,2.8691,2.8914,2.8921,2.8902,2.8901,2.8883,2.8878,2.887,2.8858,2.8843,2.8835,2.8826,2.8806,2.8782,2.8767,2.8756,2.8747,2.8743,2.8761,2.8747,2.8688,2.8679,2.867,2.8667,2.876,2.876,2.881,2.881,2.8811]}]]